Weather History for Oxford, CT

Change the Weather History Date:

Thursday, February 6, 2014

  Actual Average Record
Temperature  
Mean Temperature 18 °F -  
Max Temperature 24 °F 34 °F 51 °F (2008)
Min Temperature 12 °F 19 °F 6 °F (2007)
Degree Days  
Heating Degree Days 47    
Moisture  
Dew Point 8 °F    
Average Humidity 62    
Maximum Humidity 80    
Minimum Humidity 39    
Precipitation  
Precipitation 0.00 in - - ()
Sea Level Pressure  
Sea Level Pressure 30.15 in    
Wind  
Wind Speed 0 mph (North)    
Max Wind Speed 6 mph    
Max Gust Speed -    
Visibility 10 miles    
Events      
Averages and records for this station are not official NWS values.
T = Trace of Precipitation, MM = Missing Value Source: NWS Daily Summary

Daily Weather History Graph

Daily Weather History Graph

Search for Another Location

Airport:

Trip Planner

Search our weather history database for the weather conditions in past years. The results will help you decide how hot, cold, wet, or windy it might be!

Date:

Astronomy

Feb. 06, 2014 Rise Set
Actual Time 6:58 AM EST 5:14 PM EST
Civil Twilight 6:29 AM EST 5:43 PM EST
Nautical Twilight 5:57 AM EST 6:16 PM EST
Astronomical Twilight 5:24 AM EST 6:49 PM EST
Moon 10:45 AM EST (2/6) 12:11 AM EST (2/6)
Length of Visible Light 11h 14m
Length of Day
10h 16m
Waxing Crescent, 49% of the Moon is Illuminated
Feb 6
Waxing Crescent
Feb 6
First Quarter
Feb 14
Full
Feb 22
Last Quarter
Mar 1
New

Hourly Weather History & Observations

Time (EST) Temp. Windchill Dew Point Humidity Pressure Visibility Wind Dir Wind Speed Gust Speed Precip Events Conditions
12:15 AM 24.8 °F - 17.6 °F 74% 29.95 in 10.0 mi Calm Calm - N/A   Overcast
12:35 AM 24.8 °F - 17.6 °F 74% 29.97 in 10.0 mi Calm Calm - N/A   Overcast
12:55 AM 24.8 °F - 17.6 °F 74% 29.97 in 9.0 mi Calm Calm - N/A   Overcast
1:15 AM 24.8 °F - 17.6 °F 74% 29.98 in 10.0 mi Calm Calm - N/A   Overcast
1:35 AM 23.0 °F - 15.8 °F 74% 29.99 in 10.0 mi Calm Calm - N/A   Overcast
1:55 AM 23.0 °F - 15.8 °F 74% 30.00 in 10.0 mi Calm Calm - N/A   Overcast
2:15 AM 21.2 °F - 15.8 °F 80% 30.02 in 10.0 mi Calm Calm - N/A   Mostly Cloudy
2:35 AM 21.2 °F - 12.2 °F 68% 30.04 in 10.0 mi Calm Calm - N/A   Partly Cloudy
2:55 AM 21.2 °F - 12.2 °F 68% 30.05 in 10.0 mi Calm Calm - N/A   Scattered Clouds
3:15 AM 21.2 °F - 12.2 °F 68% 30.06 in 10.0 mi Calm Calm - N/A   Scattered Clouds
3:35 AM 21.2 °F - 12.2 °F 68% 30.07 in 10.0 mi Calm Calm - N/A   Clear
3:55 AM 19.4 °F - 10.4 °F 68% 30.07 in 10.0 mi Calm Calm - N/A   Clear
4:15 AM 19.4 °F - 10.4 °F 68% 30.08 in 10.0 mi Calm Calm - N/A   Clear
4:35 AM 19.4 °F - 8.6 °F 63% 30.09 in 10.0 mi Calm Calm - N/A   Clear
4:55 AM 19.4 °F - 10.4 °F 68% 30.10 in 10.0 mi Calm Calm - N/A   Clear
5:15 AM 19.4 °F - 10.4 °F 68% 30.11 in 10.0 mi Calm Calm - N/A   Clear
5:35 AM 17.6 °F - 8.6 °F 68% 30.12 in 10.0 mi Calm Calm - N/A   Clear
5:45 AM 17.6 °F - 8.6 °F 68% 30.13 in 10.0 mi Calm Calm - N/A   Partly Cloudy
5:55 AM 17.6 °F - 8.6 °F 68% 30.14 in 10.0 mi Calm Calm - N/A   Clear
6:55 AM 15.8 °F 8.6 °F 5.0 °F 62% 30.17 in 10.0 mi North 4.6 mph - N/A   Scattered Clouds
7:45 AM 15.8 °F 8.6 °F 5.0 °F 62% 30.20 in 10.0 mi North 4.6 mph - N/A   Mostly Cloudy
8:45 AM 15.8 °F - 6.8 °F 68% 30.24 in 10.0 mi Calm Calm - N/A   Mostly Cloudy
9:45 AM 17.6 °F 10.7 °F 6.8 °F 63% 30.24 in 10.0 mi North 4.6 mph - N/A   Mostly Cloudy
10:45 AM 17.6 °F 9.3 °F 6.8 °F 63% 30.25 in 10.0 mi North 5.8 mph - N/A   Mostly Cloudy
11:45 AM 19.4 °F - 8.6 °F 63% 30.45 in 10.0 mi Calm Calm - N/A   Scattered Clouds
12:45 PM 21.2 °F - 8.6 °F 58% 30.22 in 10.0 mi Calm Calm - N/A   Scattered Clouds
1:45 PM 23.0 °F - 8.6 °F 54% 30.22 in 10.0 mi Calm Calm - N/A   Partly Cloudy
2:45 PM 24.8 °F - 6.8 °F 46% 30.22 in 10.0 mi Calm Calm - N/A   Partly Cloudy
3:45 PM 24.8 °F - 5.0 °F 43% 30.21 in 10.0 mi Calm Calm - N/A   Partly Cloudy
4:47 PM 23.0 °F - 1.4 °F 39% 30.21 in 10.0 mi Calm Calm - N/A   Clear
5:52 PM 21.2 °F - 1.4 °F 42% 30.22 in 10.0 mi Calm Calm - N/A   Clear
6:45 PM 19.4 °F - 1.4 °F 46% 30.22 in 10.0 mi Calm Calm - N/A   Clear
7:45 PM 15.8 °F - 1.4 °F 53% 30.21 in 10.0 mi Calm Calm - N/A   Clear
9:15 PM 14.0 °F - 1.4 °F 57% 30.21 in 10.0 mi Calm Calm - N/A   Clear
9:35 PM 15.8 °F - 1.4 °F 53% 30.22 in 10.0 mi Calm Calm - N/A   Clear
9:55 PM 14.0 °F - 1.4 °F 57% 30.21 in 10.0 mi Calm Calm - N/A   Clear
10:15 PM 12.2 °F - 1.4 °F 62% 30.21 in 10.0 mi Calm Calm - N/A   Clear
10:35 PM 15.8 °F - 3.2 °F 58% 30.21 in 10.0 mi Calm Calm - N/A   Clear
10:55 PM 14.0 °F - 1.4 °F 57% 30.21 in 10.0 mi Calm Calm - N/A   Clear
11:15 PM 15.8 °F - 3.2 °F 58% 30.21 in 9.0 mi Calm Calm - N/A   Clear
11:35 PM 17.6 °F - 5.0 °F 58% 30.21 in 10.0 mi Calm Calm - N/A   Clear
11:55 PM 17.6 °F - 5.0 °F 58% 30.21 in 10.0 mi Calm Calm - N/A   Clear